Weather reports worldwide

Advertisment
Coningsby, United Kingdom (3391): temperature & dewpoint: 16.11.2017 05:00:00 - 22.11.2017 05:00:00 (GMT)Coningsby, United Kingdom (3391): wind speed & gusts: 16.11.2017 05:00:00 - 22.11.2017 05:00:00 (GMT)Coningsby, United Kingdom (3391): wind direction: 16.11.2017 05:00:00 - 22.11.2017 05:00:00 (GMT)Coningsby, United Kingdom (3391): reduced air pressure: 16.11.2017 05:00:00 - 22.11.2017 05:00:00 (GMT)Coningsby, United Kingdom (3391): visibility: 16.11.2017 05:00:00 - 22.11.2017 05:00:00 (GMT)Coningsby, United Kingdom (3391): precipitation: 16.11.2017 05:00:00 - 22.11.2017 05:00:00 (GMT)
Date & Time tt [°C] td [°C] ff [km/h] ff [kn] fx [km/h] fx [kn] dd ppp [hPa] vv [km] rr [mm]
22.11.2017 05:00:00 13,9 11,4 26 14 - - SSW 996,7 10 0,0
22.11.2017 04:00:00 13,6 11,4 28 15 - - SSW 997,1 10 0,0
22.11.2017 03:00:00 13,7 11,6 29 16 - - SSW 997,9 10 0,0
22.11.2017 02:00:00 13,5 11,6 26 14 - - SSW 998,6 10 0,0
22.11.2017 01:00:00 13,2 11,3 31 17 46 25 SW 998,6 10 0,0
22.11.2017 00:00:00 13,5 11,3 31 17 - - SW 999,1 10 0,0
21.11.2017 23:00:00 13,5 11,1 31 17 46 25 SW 999,6 10 -
21.11.2017 22:00:00 13,1 11,0 24 13 - - SW 999,9 10 0,0
21.11.2017 21:00:00 12,6 10,6 22 12 - - SSW 1000,5 10 0,0
21.11.2017 20:00:00 11,6 10,3 22 12 - - SSW 1001,2 10 0,0
21.11.2017 19:00:00 11,1 10,2 24 13 - - SSW 1001,8 10 0,6
21.11.2017 18:00:00 10,6 9,6 21 11 - - S 1003,0 6 1,0
21.11.2017 17:00:00 11,3 9,0 18 10 - - SSW 1004,0 10 0,0
21.11.2017 16:00:00 11,7 9,1 21 11 - - SSW 1004,6 10 0,0
21.11.2017 15:00:00 12,4 9,6 21 11 - - SSW 1005,0 10 -
21.11.2017 14:00:00 12,6 9,9 18 10 - - SW 1005,6 10 0,0
21.11.2017 13:00:00 13,0 10,5 28 15 - - SW 1006,2 10 0,0
21.11.2017 12:00:00 13,2 11,0 21 11 - - SW 1006,8 10 0,0
21.11.2017 11:00:00 13,6 11,1 22 12 - - WSW 1007,5 10 -
21.11.2017 10:00:00 13,2 11,4 16 9 - - SW 1007,8 10 0,0
21.11.2017 09:00:00 13,2 11,3 22 12 - - WSW 1007,7 10 0,0
21.11.2017 08:00:00 13,1 11,3 21 11 - - WSW 1007,6 10 0,0
21.11.2017 07:00:00 12,6 11,3 18 10 - - SW 1007,7 10 0,0
21.11.2017 06:00:00 12,7 11,4 16 9 - - SW 1007,2 10 0,0
21.11.2017 05:00:00 12,4 11,5 13 7 - - WSW 1007,9 10 0,0
21.11.2017 04:00:00 11,3 11,0 13 7 - - SSW 1008,3 6 0,0
21.11.2017 03:00:00 10,8 10,7 11 6 - - SSW 1008,6 3,5 0,6
21.11.2017 02:00:00 11,0 10,7 9 5 - - SSW 1009,3 1,6 0,4
21.11.2017 01:00:00 10,3 9,8 11 6 - - WSW 1009,9 6 0,0
21.11.2017 00:00:00 10,3 9,0 15 8 - - SW 1009,9 10 0,0
20.11.2017 23:00:00 10,7 8,9 16 9 - - WSW 1010,0 10 0,0
20.11.2017 22:00:00 10,4 8,9 9 5 - - SW 1010,1 10 0,0
20.11.2017 21:00:00 11,1 9,2 9 5 - - W 1010,1 10 0,0
20.11.2017 20:00:00 10,6 9,4 11 6 - - WSW 1009,9 10 0,0
20.11.2017 19:00:00 12,1 9,4 13 7 - - W 1009,9 10 0,0
20.11.2017 18:00:00 12,4 9,7 16 9 - - W 1009,3 10 0,0
20.11.2017 17:00:00 11,9 10,6 11 6 - - WSW 1009,1 10 0,0
20.11.2017 16:00:00 12,5 10,7 18 10 - - WSW 1008,7 10 -
20.11.2017 15:00:00 13,2 10,6 22 12 - - WSW 1008,6 4,0 0,0
20.11.2017 14:00:00 13,3 10,2 22 12 - - SW 1008,6 10 0,0
20.11.2017 13:00:00 13,0 10,5 26 14 - - WSW 1008,8 10 0,0
20.11.2017 12:00:00 12,4 10,2 26 14 - - WSW 1009,5 10 0,0
20.11.2017 11:00:00 11,9 9,7 26 14 - - WSW 1010,4 10 0,0
20.11.2017 10:00:00 10,7 9,0 24 13 - - WSW 1010,7 10 0,0
20.11.2017 09:00:00 9,7 8,4 16 9 - - SW 1011,1 10 0,2
20.11.2017 08:00:00 8,1 7,4 21 11 - - SSW 1011,6 6 0,0
20.11.2017 07:00:00 7,5 6,9 18 10 - - S 1012,3 8 0,2
20.11.2017 06:00:00 6,5 6,1 18 10 - - S 1013,3 7 -
20.11.2017 05:00:00 5,7 5,3 16 9 - - S 1014,7 6 0,6
20.11.2017 04:00:00 5,3 4,6 16 9 - - S 1015,7 5 1,0
20.11.2017 03:00:00 5,0 4,1 13 7 - - S 1016,6 8 0,6
20.11.2017 02:00:00 5,3 3,3 13 7 - - SSW 1018,1 10 0,0
20.11.2017 01:00:00 5,0 2,9 11 6 - - S 1018,6 10 0,0
20.11.2017 00:00:00 4,7 2,6 9 5 - - S 1019,9 10 -
19.11.2017 23:00:00 4,3 2,5 5 3 - - S 1020,8 10 0,0
19.11.2017 22:00:00 3,5 2,2 2 1 - - S 1021,7 10 0,0
19.11.2017 21:00:00 3,3 1,5 2 1 - - SSW 1022,1 10 0,0
19.11.2017 20:00:00 3,4 1,1 4 2 - - SW 1022,2 10 0,0
19.11.2017 19:00:00 3,1 0,8 2 1 - - SSW 1022,2 10 0,0
19.11.2017 18:00:00 3,2 1,1 5 3 - - SW 1022,4 10 0,0
19.11.2017 17:00:00 3,5 0,4 4 2 - - WSW 1022,5 10 0,0
19.11.2017 16:00:00 5,2 0,1 8 4 - - W 1022,9 10 0,0
19.11.2017 15:00:00 6,6 -0,7 13 7 - - W 1022,9 10 0,0
19.11.2017 14:00:00 6,6 -0,8 13 7 - - WNW 1022,9 10 0,0
19.11.2017 13:00:00 6,4 -1,5 15 8 - - WNW 1022,9 10 0,0
19.11.2017 12:00:00 5,5 -1,5 16 9 - - NW 1023,2 10 0,0
19.11.2017 11:00:00 4,0 -1,4 15 8 - - NW 1023,2 10 0,0
19.11.2017 10:00:00 2,3 -2,0 11 6 - - WNW 1023,0 10 0,0
19.11.2017 09:00:00 0,9 -1,9 8 4 - - WNW 1022,8 10 0,0
19.11.2017 08:00:00 0,0 -2,3 5 3 - - NW 1022,3 10 0,0
19.11.2017 07:00:00 -0,1 -2,6 9 5 - - NW 1021,8 10 0,0
19.11.2017 06:00:00 0,1 -2,2 11 6 - - WNW 1021,5 10 0,0
19.11.2017 05:00:00 0,7 -2,1 11 6 - - NW 1021,3 10 0,0
19.11.2017 04:00:00 0,9 -1,7 13 7 - - NW 1021,1 10 0,0
19.11.2017 03:00:00 1,5 -1,4 11 6 - - NW 1020,7 10 0,0
19.11.2017 02:00:00 2,2 -1,1 13 7 - - WNW 1020,7 10 0,0
19.11.2017 01:00:00 2,8 -0,5 13 7 - - WNW 1020,4 10 0,0
19.11.2017 00:00:00 3,3 0,5 13 7 - - WNW 1020,1 10 0,0
18.11.2017 23:00:00 3,0 0,5 9 5 - - WNW 1019,7 10 0,0
18.11.2017 22:00:00 3,6 0,7 9 5 - - NW 1019,6 10 0,0
18.11.2017 21:00:00 4,5 1,3 13 7 - - WNW 1019,8 10 0,0
18.11.2017 20:00:00 5,5 1,8 9 5 - - WNW 1019,4 10 0,0
18.11.2017 19:00:00 5,3 2,7 5 3 - - WNW 1019,3 10 0,0
18.11.2017 18:00:00 6,4 2,6 9 5 - - W 1019,1 10 0,0
18.11.2017 17:00:00 7,3 3,4 13 7 - - NW 1018,8 10 0,0
18.11.2017 16:00:00 8,1 3,5 16 9 - - W 1018,8 10 0,0
18.11.2017 15:00:00 8,2 4,5 22 12 - - W 1018,8 10 0,0
18.11.2017 14:00:00 8,6 5,3 15 8 - - W 1019,1 10 0,0
18.11.2017 13:00:00 8,6 5,2 18 10 - - W 1019,3 10 0,0
18.11.2017 12:00:00 9,0 4,9 26 14 - - W 1019,3 10 0,0
18.11.2017 11:00:00 8,6 4,6 28 15 - - W 1019,9 10 0,0
18.11.2017 10:00:00 7,3 4,1 22 12 - - WSW 1020,1 10 0,0
18.11.2017 09:00:00 5,2 3,2 22 12 - - WSW 1020,3 10 0,0
18.11.2017 08:00:00 3,3 1,8 18 10 - - WSW 1020,3 10 0,0
18.11.2017 07:00:00 3,2 1,4 18 10 - - WSW 1020,2 10 0,0
18.11.2017 06:00:00 3,4 1,1 22 12 - - WSW 1020,3 10 0,0
18.11.2017 05:00:00 2,8 0,4 22 12 - - WSW 1020,7 10 0,0
18.11.2017 04:00:00 2,1 0,3 16 9 - - SSW 1021,1 10 0,0
18.11.2017 03:00:00 2,2 0,1 18 10 - - SSW 1022,0 10 0,0
18.11.2017 02:00:00 1,9 0,1 18 10 - - SW 1022,7 10 0,0
18.11.2017 01:00:00 2,6 0,2 18 10 - - SW 1023,4 10 0,0
18.11.2017 00:00:00 2,3 0,4 16 9 - - SW 1023,8 10 -
17.11.2017 23:00:00 2,2 0,5 16 9 - - SW 1024,5 10 0,0
17.11.2017 22:00:00 2,6 0,3 13 7 - - SW 1025,1 10 0,0
17.11.2017 21:00:00 2,3 0,3 15 8 - - SW 1025,4 10 0,0
17.11.2017 20:00:00 2,4 0,5 11 6 - - SSW 1025,6 10 0,0
17.11.2017 19:00:00 3,1 1,2 15 8 - - SW 1025,8 10 0,0
17.11.2017 18:00:00 3,7 2,0 9 5 - - SW 1026,6 10 0,0
17.11.2017 17:00:00 3,5 1,6 11 6 - - WSW 1026,6 10 0,0
17.11.2017 16:00:00 5,6 2,9 16 9 - - WSW 1026,5 10 0,0
17.11.2017 15:00:00 6,7 3,4 15 8 - - WSW 1026,9 10 0,0
17.11.2017 14:00:00 7,2 3,6 16 9 - - WSW 1027,3 10 0,0
17.11.2017 13:00:00 7,8 3,3 18 10 - - W 1027,9 10 0,0
17.11.2017 12:00:00 7,6 2,9 18 10 - - W 1028,5 10 0,0
17.11.2017 11:00:00 6,0 2,8 11 6 - - WSW 1028,5 10 0,0
17.11.2017 10:00:00 3,6 1,0 9 5 - - W 1029,1 10 0,0
17.11.2017 09:00:00 0,7 0,5 5 3 - - W 1028,9 10 0,0
17.11.2017 08:00:00 -0,6 -1,0 4 2 - - WNW 1028,9 10 0,0
17.11.2017 07:00:00 -1,5 -1,8 4 2 - - SSW 1028,6 10 0,0
17.11.2017 06:00:00 -0,1 -1,3 2 1 - - S 1028,4 8 0,0
17.11.2017 05:00:00 0,0 -0,8 4 2 - - WSW 1028,3 9 0,0
17.11.2017 04:00:00 -1,0 -1,5 4 2 - - WSW 1028,3 10 0,0
17.11.2017 03:00:00 -0,3 -1,7 2 1 - - W 1028,2 10 0,0
17.11.2017 02:00:00 -0,9 -2,1 5 3 - - W 1028,4 10 0,0
17.11.2017 01:00:00 -0,8 -2,5 4 2 - - ESE 1028,1 10 0,0
17.11.2017 00:00:00 0,1 -0,9 4 2 - - WSW 1028,1 10 0,0
16.11.2017 23:00:00 1,7 0,1 4 2 - - W 1027,8 10 0,0
16.11.2017 22:00:00 2,1 -0,1 4 2 - - WSW 1027,2 10 0,0
16.11.2017 21:00:00 4,2 1,0 5 3 - - WNW 1026,7 10 0,0
16.11.2017 20:00:00 4,7 1,4 9 5 - - WNW 1026,2 10 0,0
16.11.2017 19:00:00 5,2 2,1 8 4 - - NW 1025,6 10 0,0
16.11.2017 18:00:00 6,3 2,8 11 6 - - WNW 1024,7 10 0,0
16.11.2017 17:00:00 7,6 2,0 15 8 - - NW 1023,8 10 -
16.11.2017 16:00:00 9,1 1,3 22 12 - - NW 1022,7 10 0,0
16.11.2017 15:00:00 10,5 4,1 18 10 - - NW 1021,5 10 0,0
16.11.2017 14:00:00 10,7 5,6 24 13 46 25 WNW 1020,8 10 0,0
16.11.2017 13:00:00 11,9 8,0 29 16 - - NW 1019,9 10 0,0
16.11.2017 12:00:00 12,3 8,5 21 11 - - WSW 1019,3 10 0,0
16.11.2017 11:00:00 11,9 8,4 24 13 - - SW 1019,4 10 0,0
16.11.2017 10:00:00 10,6 8,9 16 9 - - SSW 1019,2 10 0,0
16.11.2017 09:00:00 9,3 8,5 15 8 - - SSW 1019,4 8 0,0
16.11.2017 08:00:00 9,0 8,4 15 8 - - SSW 1019,4 6 0,0
16.11.2017 07:00:00 9,1 8,7 13 7 - - SSW 1019,2 4,0 0,0
16.11.2017 06:00:00 8,4 8,2 9 5 - - SSW 1019,1 3,5 0,0
16.11.2017 05:00:00 8,0 7,9 8 4 - - SW 1019,2 1,8 0,0

tt = temperature
td = dewpoint
ff = wind speed
fx = gusts
dd = wind direction
ppp = reduced air pressure
vv = visibility
rr = precipitation

Next stations